Flag Weather past 2 weeks in Koblenz, Rhineland-Palatinate, Germany

Now
34 °F

Chilly.


Feels Like: 26 °F
Forecast: 32 / 43 °F
Wind: 9 mph from Northeast

Location: Buechel

Current Time: Nov 24, 2014 at 11:34:57 PM

Latest Report: Nov 24, 2014 at 10:20 PM


Visibility: 5 mi

Pressure: 30.30 "Hg

Humidity: 93%

Dew point: 32 °F

Location of KoblenzLocation

Historic Weather in Koblenz — Graph

°F

Koblenz temperature yesterday

Maximum temperature yesterday: 52 °F (at 12:20 PM)
Minimum temperature yesterday: 41 °F (at 8:20 AM)
Average temperature yesterday: 47 °F

Past Weeks' High & Low Weather Summary

 TemperatureHumidityPressure
High52 °F (Nov 22, 2:20 PM)100% (Nov 9, 10:20 PM)30.30 "Hg (Nov 9, 10:20 PM)
Low34 °F (Nov 24, 9:20 PM)66% (Nov 19, 1:20 PM)29.53 "Hg (Nov 16, 6:20 AM)
Average44 °F93%29.88 "Hg
* Reported Nov 9 10:20 PM — Nov 24 10:20 PM, Koblenz, Weather by CustomWeather, © 2014

Note: Actual official high and low records may vary slightly from our data, if they occured in-between our weather recording intervals... More about our weather records

Advertising

Koblenz weather history for previous 24 hours

 ConditionsComfort  
Time TempWeatherWind HumidityBarometerVisibility
10:20 PM
Nov 24
34 °FChilly.9 mph93%30.30 "Hg5 mi
9:20 PM34 °FChilly.9 mph100%30.30 "Hg4 mi
8:20 PM36 °FPassing clouds.7 mph93%30.30 "HgN/A
7:20 PM37 °FPassing clouds.7 mph93%30.27 "HgN/A
6:20 PM39 °FPassing clouds.7 mph87%30.27 "HgN/A
5:20 PM39 °FPassing clouds.7 mph93%30.27 "HgN/A
4:20 PM43 °FScattered clouds.7 mph81%30.27 "HgN/A
3:20 PM45 °FScattered clouds.6 mph76%30.24 "HgN/A
2:20 PM46 °FScattered clouds.6 mph71%30.24 "HgN/A
1:20 PM45 °FScattered clouds.7 mph76%30.24 "HgN/A
12:20 PM46 °FPartly sunny.9 mph82%30.24 "HgN/A
11:47 AM45 °FPartly sunny.7 mph87%30.24 "HgN/A
11:20 AM45 °FPartly sunny.8 mph87%30.24 "HgN/A
10:20 AM45 °FPartly sunny.8 mph93%30.21 "Hg6 mi
9:20 AM45 °FBroken clouds.8 mph93%30.18 "HgN/A
8:20 AM45 °FPartly sunny.8 mph93%30.18 "Hg4 mi
7:20 AM46 °FFog.9 mph87%30.15 "Hg3 mi
6:20 AM46 °FFog.8 mph93%30.12 "Hg3 mi
5:20 AM48 °FPassing clouds.6 mph94%30.09 "Hg5 mi
4:20 AM50 °FPassing clouds.8 mph88%30.07 "Hg5 mi
3:20 AM50 °FCool.8 mph88%30.07 "Hg5 mi
2:20 AM50 °FCool.8 mph88%30.04 "Hg5 mi
1:20 AM50 °FCool.9 mph88%30.04 "Hg6 mi
12:20 AM48 °FCool.7 mph87%30.04 "Hg6 mi
11:20 PM
Nov 23
48 °FCool.6 mph87%30.04 "Hg6 mi
Weather by CustomWeather, © 2014

See weather overviewHow to use our weather pages